Weather observations for the past three days for
Kingsville, Naval Air Station
Imperial (Metric)
Date Time (cdt) Wind (mph) Vis. (mi.) Weather Sky Cond. Temperature (ºF) Relative Humidity Wind Chill (°F) Heat Index (°F) Pressure Precipitation (in)
Air Dwpt 6 hour altimeter (in) sea level (mb) 1 hr 3 hr 6 hr
Max. Min.
15 21:56 SE 7 10.00 Fair CLR 84.9 73.9 70% 92 29.83 1009.9
15 20:56 SE 9 10.00 Fair CLR 87.1 73.9 65% 95 29.82 1009.4
15 19:56 SE 14 10.00 Fair CLR 89.1 73.9 61% 98 29.81 1009.1
15 18:56 E 15 G 28 10.00 Fair CLR 93 75 102 91.9 56% 104 29.8 1008.8
15 17:56 SE 15 G 28 10.00 Fair CLR 96.1 72 46% 105 29.8 1008.7
15 16:56 SE 13 G 23 10.00 Fair CLR 98.1 71.1 42% 106 29.8 1008.9
15 15:56 E 17 G 26 10.00 Fair CLR 99 70 39% 106 29.82 1009.4
15 14:56 E 15 G 29 10.00 Partly Cloudy SCT060 99 70 39% 106 29.83 1009.9
15 13:56 SE 15 10.00 Mostly Cloudy BKN060 98.1 71.1 42% 106 29.85 1010.4
15 12:56 S 9 10.00 Mostly Cloudy SCT050 SCT065 BKN100 98.1 72 98.1 79 43% 107 29.88 1011.4
15 11:56 SE 7 10.00 A Few Clouds FEW090 93.9 73 51% 103 29.89 1011.8
15 10:56 Vrbl 3 10.00 Mostly Cloudy FEW031 SCT043 BKN050 93.9 75 54% 106 29.9 1012.1
15 09:56 S 7 10.00 Partly Cloudy FEW030 SCT039 91 75.9 61% 103 29.9 1012.2
15 08:56 Vrbl 5 10.00 Fair CLR 88 78.1 73% 102 29.9 1012.2
15 07:56 Calm 10.00 Fair CLR 84 77 80% 94 29.89 1012.0
15 06:56 Calm 10.00 Fair CLR 79 73.9 82 78.1 85% 83 29.88 1011.6
15 05:56 Calm 10.00 Fair CLR 79 73.9 85% 83 29.87 1011.2
15 04:56 S 3 10.00 Fair CLR 80.1 75 85% 85 29.87 1011.2
15 03:56 Calm 10.00 Fair CLR 81 75.9 85% 87 29.88 1011.3
15 02:56 E 3 10.00 Fair CLR 81 75.9 85% 87 29.88 1011.6
15 01:56 NE 3 10.00 Partly Cloudy SCT023 81 75 82% 87 29.9 1012.3
15 00:56 E 5 10.00 Fair CLR 81 73.9 93.9 81 79% 86 29.91 1012.5
14 22:56 E 3 10.00 Fair CLR 82.9 75 77% 90 29.89 1011.9
14 20:56 SE 7 10.00 Fair CLR 87.1 73.9 65% 95 29.87 1011.1
14 19:56 SE 13 10.00 Fair CLR 91 73 56% 100 29.86 1010.7
14 18:56 SE 14 10.00 Fair CLR 93.9 72 100.9 93.9 49% 102 29.84 1010.2
14 17:56 E 13 G 26 10.00 A Few Clouds FEW040 FEW060 97 72 45% 106 29.83 1009.9
14 16:56 E 14 G 23 10.00 Partly Cloudy FEW050 SCT070 99 70 39% 106 29.84 1010.1
14 15:56 E 14 G 23 10.00 Mostly Cloudy SCT055 BKN075 100 73 42% 111 29.85 1010.3
14 14:56 E 6 10.00 Mostly Cloudy SCT055 BKN080 97 73 46% 107 29.86 1010.9
14 13:56 Vrbl 3 10.00 Partly Cloudy SCT050 SCT080 98.1 73 45% 108 29.88 1011.4
14 12:56 E 5 10.00 Mostly Cloudy FEW047 SCT060 BKN080 98.1 73.9 98.1 78.1 46% 110 29.89 1011.9
14 11:56 Calm 10.00 Partly Cloudy FEW050 SCT080 93.9 73.9 52% 104 29.9 1012.2
14 10:56 E 5 10.00 A Few Clouds FEW050 FEW070 93 75 56% 104 29.92 1012.8
14 09:56 Vrbl 3 10.00 Partly Cloudy SCT035 SCT050 91 77 64% 105 29.94 1013.4
14 08:56 Calm 10.00 Mostly Cloudy BKN021 BKN032 88 77 70% 100 29.93 1013.2
14 07:56 Calm 10.00 A Few Clouds FEW025 FEW250 84.9 77 77% 95 29.92 1012.8
14 06:56 Calm 10.00 A Few Clouds FEW025 FEW250 78.1 73.9 82.9 78.1 87% 81 29.9 1012.3
14 05:56 NE 3 10.00 Fair CLR 79 75 88% 83 29.89 1011.9
14 04:56 Calm 10.00 A Few Clouds FEW022 79 75 88% 83 29.89 1011.6
14 03:56 Calm 10.00 Fair CLR 80.1 75 85% 85 29.89 1011.7
14 02:56 S 3 10.00 Fair CLR 82 75.9 82% 89 29.89 1011.8
14 01:56 Calm 10.00 Partly Cloudy SCT024 82 75.9 82% 89 29.89 1011.7
14 00:56 SE 5 10.00 Fair CLR 82 75.9 95 82 82% 89 29.89 1011.9
13 23:56 E 5 10.00 Fair CLR 82.9 75 77% 90 29.9 1012.2
13 22:56 SE 3 10.00 Fair CLR 84 75 74% 92 29.89 1011.9
13 21:56 SE 6 10.00 Fair CLR 86 75 70% 95 29.88 1011.6
13 20:56 SE 7 10.00 A Few Clouds FEW025 FEW200 88 75 66% 98 29.87 1011.2
13 19:56 SE 13 G 23 10.00 A Few Clouds FEW150 91 75 59% 102 29.86 1010.7
13 18:56 E 13 G 21 10.00 A Few Clouds FEW045 FEW250 95 73 102 95 49% 105 29.84 1010.0
13 17:56 E 14 G 23 10.00 Partly Cloudy FEW045 SCT250 98.1 75 48% 111 29.83 1009.9
13 16:56 E 13 G 24 10.00 Partly Cloudy SCT050 SCT250 99 75 46% 112 29.83 1009.8
13 15:56 E 9 G 18 10.00 Mostly Cloudy SCT055 SCT180 BKN250 100 73.9 43% 112 29.85 1010.3
13 14:56 E 9 G 22 10.00 Mostly Cloudy SCT045 SCT180 BKN250 98.1 75 48% 111 29.86 1010.9
13 13:56 Calm 10.00 Mostly Cloudy SCT055TCU SCT080 BKN250 99 72 42% 108 29.88 1011.4
13 12:56 S 6 10.00 Mostly Cloudy SCT050 SCT110 BKN250 96.1 72 99 79 46% 105 29.89 1011.9
13 11:56 SW 6 10.00 Mostly Cloudy BKN042 BKN100 BKN250 95 72 47% 103 29.91 1012.5
13 10:56 Vrbl 6 10.00 Mostly Cloudy SCT033 SCT050 BKN110 BKN250 93 73.9 54% 103 29.92 1012.7
13 09:56 Vrbl 5 10.00 Mostly Cloudy BKN026 BKN037 BKN150 91 77 64% 105 29.93 1013.0
13 08:56 S 7 10.00 Partly Cloudy FEW024TCU SCT090 SCT250 89.1 77 68% 102 29.92 1012.7
13 07:56 S 5 10.00 Partly Cloudy FEW025 SCT090 SCT250 84.9 78.1 80% 97 29.9 1012.1
13 06:56 Calm 10.00 Mostly Cloudy SCT025 BKN090 79 75.9 81 78.1 90% 83 29.88 1011.4
13 05:56 Calm 10.00 Fair CLR 79 75.9 90% 83 29.86 1010.9
13 04:56 Calm 10.00 Partly Cloudy FEW024 SCT095 80.1 75.9 87% 85 29.86 1010.8
13 03:56 Calm 10.00 A Few Clouds FEW095 80.1 77 90% 86 29.86 1010.6
13 02:56 SE 3 10.00 Mostly Cloudy FEW022 BKN100 81 77 88% 88 29.86 1010.8
13 01:56 SE 3 10.00 Fair CLR 81 77 88% 88 29.88 1011.4
13 00:56 Calm 10.00 Fair CLR 81 77 89.1 81 88% 88 29.89 1011.7
12 23:56 E 3 10.00 Fair CLR 82 77 85% 90 29.89 1011.9
12 22:56 E 3 10.00 Fair CLR 82.9 78.1 85% 93 29.89 1011.8
Date Time (cdt) Wind (mph) Vis. (mi.) Weather Sky Cond. Air Dwpt Max. Min. Relative Humidity Wind Chill (°F) Heat Index (°F) altimeter (in) sea level (mb) 1 hr 3 hr 6 hr
6 hour
Temperature (ºF) Pressure Precipitation (in)